DELTA 1 DEB

Satellite information

Favourite Embed

Satellite Type and Status

DEBRISIN ORBIT

Key statistics

Satellite DELTA 1 DEB at a glance.

Uptime

17403

Days in orbit

Revolutions

≈ 14.1

Per day

Orbit

SSO

Sun Synchronous Orbit

Inclination

99.0

Latest

Satellite identification and parameters

Extended collection of information and parameters for DELTA 1 DEB.

Object identification

Identified? True

Debris? True

Object name: DELTA 1 DEB

International designator: 1978-026E

Object number (NORAD): 12165

Object ID (CCSDS): 12165

Country: UNITED STATES OF AMERICA (US)

Current information (Y/N): Y

RCS size: MEDIUM

Orbital parameters

Period: 102.055 minutes

Inclination: 99.02 deg

SMA: 7234.077 km

Apoapsis: 887.79 km

Periapsis: 824.094 km

RAAN: 328.7259 deg

Eccentricy: 0.00440248

Argument of periapsis: 148.2373 deg

Mean anomaly: 276.2511 deg

Mean motion: 14.11003451 rev/day

Mean motion (dot): 0.00000134 rev/day2

B* drag term: 0.000098632919 1/REarth

Two-line elements (TLE)

Creation date: Oct. 27, 2025, 2:46 a.m.

Reference frame: TEME

Reference center: EARTH

Epoch: Oct. 26, 2025, 11:12 p.m. UTC

TLE line 0: 0 DELTA 1 DEB

TLE line 1: 1 12165U 78026E 25299.96690260 .00000134 00000-0 98633-4 0 9994

TLE line 2: 2 12165 99.0200 328.7259 0044025 148.2373 276.2511 14.11003451 86947

Live tracking on map

Real-time ground track for satellite DELTA 1 DEB.

In-orbit conjunctions

A list of the most updated potential collisions computed for object DELTA 1 DEB.

Target Orbit TCA Probability of collision Miss distance Type
COSMOS 1275 DEB LEO 2025-07-14 06:34:51 0.0002388606 95.0 (m) DEBRIS
CZ-6A DEB SSO 2025-05-13 12:10:48 0.0002262107 281.0 (m) DEBRIS

Associated space launch

Earth observation satellite

DELTA 1 DEB was lifted into orbit during the mission ‘Delta 2910 | Landsat 3’, on board a Delta 2910 space rocket.

The launch took place on March 5, 1978, 5:54 p.m. from Space Launch Complex 2W.

For more information about the launch, click the button.

Launch to space Delta 2910 | Landsat 3
Delta 2910 | Landsat 3

Agency: N/A

Status: Launch Successful

Launch date: March 5, 1978, 5:54 p.m. UTC

Rocket: Delta 2910

Launch pad: Space Launch Complex 2W

Location: Vandenberg SFB, CA, USA

...

Latest news about this satellite

There are no fresh news available about this satellite. Check back as we update our databases every day.


Newsletter sign-up

Weekly statistics, charts and insights to help you stay on top of the space industry.